Regional Weather Roundup
Issued by NWS

Home | Current Version | Previous Version | Text Only | Print | Product List | Glossary On
Versions: 1 2 3 4 5 6 7 8 9 10 11 12 13 14 15 16 17 18 19 20 21 22 23 24 25 26 27 28 29 30 31 32 33 34 35 36 37 38 39 40 41 42 43 44 45 46 47 48 49 50
430
ASUS43 KLSX 230457
RWRMO

WEATHER SUMMARY FOR MISSOURI
NATIONAL WEATHER SERVICE SPRINGFIELD MO
1200 AM CDT SUN JUL 23 2017

NOTE: "FAIR" INDICATES FEW OR NO CLOUDS BELOW 12,000 FEET WITH NO
       SIGNIFICANT WEATHER AND/OR OBSTRUCTIONS TO VISIBILITY.
       CURRENT SKY AND/OR WEATHER CONDITIONS ARE NOT AVAILABLE FOR
       CHILLICOTHE AND FARMINGTON.

MOZ001>031-035>038-043-044-053-054-230600-
...NORTHERN AND WESTERN MISSOURI...

CITY           SKY/WX    TMP DP  RH WIND       PRES   REMARKS
KANSAS CTY INT CLOUDY    73  69  87 E8        29.95F
KANSAS C DTWN  LGT RAIN  74  70  87 NE10      29.90F
LEE`S SUMMIT   TSTM      72  68  87 NE12      29.92F
ST JOSEPH      CLOUDY    79  72  79 SW6       29.93R
CHILLICOTHE      N/A     82  76  81 N5        29.88R

$$
MOZ066>068-077>081-088>096-101>105-230600-
...SOUTHWEST MISSOURI...

CITY           SKY/WX    TMP DP  RH WIND       PRES   REMARKS
SPRINGFIELD    CLEAR     82  74  76 S9        29.91R
JOPLIN         CLEAR     86  72  62 S13       29.89R HX  92

$$
MOZ032>034-039>042-045>050-055>058-069>072-230600-
...CENTRAL MISSOURI...

CITY           SKY/WX    TMP DP  RH WIND       PRES   REMARKS
COLUMBIA       NOT AVBL
JEFFERSON CITY CLOUDY    85  80  85 SE3       29.82S HX  99
ROLLA          CLEAR     80  72  76 SW6       29.87S
SEDALIA        TSTM      81  75  82 NW33G47   29.89R SQUALL

$$
MOZ051-052-059>065-230600-
...EAST CENTRAL MISSOURI...

CITY           SKY/WX    TMP DP  RH WIND       PRES   REMARKS
ST LOUIS INTL  CLOUDY    89  73  59 S9        29.82S HX  97

$$
MOZ072>076-082>087-097>100-106>115-230600-
...SOUTH CENTRAL AND SOUTHEAST MISSOURI...

CITY           SKY/WX    TMP DP  RH WIND       PRES   REMARKS
CAPE GIRARDEAU CLEAR     83  74  74 SW6       29.85S
POPLAR BLUFF   CLEAR     81  77  88 SW7       29.86F
WEST PLAINS    CLEAR     82  72  71 SW7       29.93S

$$



USA.gov is the U.S. government's official web portal to all federal, state and local government web resources and services.